Location: Colorado Springs
(38.8340°N, 104.8210°W)
Time: 10:14:31
(UTC-07:00)

N. Korean satellite - Pass Details

Date: 13 October 2017
Orbit: 461 x 513 km, 97.2° (Epoch: 10 December)

Event Time Altitude Azimuth Distance (km) Brightness Sun altitude
Rises 19:22:40 0° 180° (S) 2,554 10.2 -12.4°
Reaches altitude 10° 19:24:48 10° 186° (S) 1,668 9.4 -12.8°
Maximum altitude 19:28:16 45° 261° (W) 661 7.8 -13.4°
Drops below altitude 10° 19:31:41 10° 335° (NNW) 1,653 9.6 -14.1°
Sets 19:33:48 0° 342° (NNW) 2,527 10.5 -14.5°
